497  
ASUS46 KPDT 201010  
RWRPDT  
PENDLETON REGIONAL WEATHER ROUNDUP  
NATIONAL WEATHER SERVICE PENDLETON OREGON  
300 AM PDT FRI APR 20 2018  
 
NOTE: FAIR INDICATES FEW OR NO CLOUDS BELOW 12,000 FEET WITH NO  
SIGNIFICANT WEATHER AND/OR S TO VISIBILITY
.  
 
# INDICATES UNOFFICIAL STATION AND DATA  
 
WAZ520-201110-  
EAST SLOPES OF WASHINGTON CASCADES  
 
CITY SKY/WX TMP DP RH WIND PRES REMARKS
 
#BULLFROG N/A 36 34 92 W2 N/A  
#CLE ELUM HS N/A 39 33 79 CALM 30.14F  
#EASTON DOT N/A 38 34 85 CALM N/A  
#ELK HTS DOT N/A 40 40 100 E1 N/A  
#GLENWOOD N/A 29 26 88 CALM 30.23S  
#NELSON 3SW N/A 39 34 82 CALM 30.43S  
#NILE N/A 37 33 85 CALM 29.55S  
#TEANAWAY 4NE N/A 35 32 89 CALM N/A  
#TROUT LAKE 1NE N/A 36 32 85 CALM 30.23F  
#TROUT LAKE 1E N/A 32 30 92 CALM 30.24S  

 
 
WAZ521-201110-  
SIMCOE HIGHLANDS  
 
CITY SKY/WX TMP DP RH WIND PRES REMARKS
 
#BICKLETON HS N/A 42 31 65 N8 29.81F  
#SATUS PASS DOT N/A 37 29 72 S2 N/A  
#CENTERVILLE 1SWN/A 40 31 70 CALM 30.18R  
#GOLDENDALE 1NE N/A 36 16 44 N3 N/A  
#GOLDENDALE 4W N/A 39 21 48 CALM 30.23F  
#GOODNOE HILLS N/A 45 33 63 NW12 30.11R WCI 39  
#LYLE 6NE N/A 46 37 71 CALM 30.23S  
#PITT 4SE N/A 40 35 82 CALM 30.24S  

 
 
WAZ026-201110-  
KITTITAS VALLEY  
 
CITY SKY/WX TMP DP RH WIND PRES REMARKS
 
ELLENSBURG AP PTCLDY 41 33 73 W6 30.19F  
#ELLENSBURG CWU N/A 44 35 70 NW2 30.14S  
#ELLENSBURG 3NE N/A 41 34 76 CALM 28.26F  
#ELLENSBURG 1E N/A 42 34 73 CALM 30.25F  
#KITTITAS 3S N/A 35 32 89 E1 30.20S  
#MANASTASH RDG N/A 41 41 100 NW1 N/A  
#ROCKY CYN DOT N/A 41 35 79 NW16 N/A WCI 33  
#RYEGRASS DOT N/A 38 31 76 CALM N/A  

 
 
WAZ027-201110-  
YAKIMA VALLEY  
 
CITY SKY/WX TMP DP RH WIND PRES REMARKS
 
YAKIMA AIRPORT PTCLDY 46 33 60 CALM 30.20S  
YAKIMA-VAGABOND CLEAR 44 30 58 CALM 30.18S  
#DONALD 2NE N/A 51 2 13 NW8 29.02S  
#GRANDVIEW N/A 42 33 70 CALM 30.21S  
#MOXEE 2E N/A 37 N/A N/A SW12 29.79S WCI 29  
#NACHES 2SW N/A 46 34 63 W7 30.19S  
#OUTLOOK DOT N/A 47 34 60 CALM 30.16R  
#PARKER DOT N/A 51 32 48 S9 30.18S  
#TERRACE HTS N/A 48 33 56 NW2 30.15S  
#TOPPENISH N/A 48 36 63 CALM 30.11S  
#I82 S UMTANUM RN/A 46 27 47 N1 N/A  
#UNION GAP DOT N/A 47 33 58 N5 30.23S  
#W YAKIMA N/A 45 33 63 CALM 30.19F  
#WHITE SWAN 5E N/A 39 33 79 CALM 30.20S  
#WILEY CITY 3W N/A 35 27 72 CALM 30.16S  
#ZILLAH DOT N/A 47 34 60 SW1 N/A  

 
 
WAZ028-201110-  
LOWER COLUMBIA BASIN...WASHINGTON  
 
CITY SKY/WX TMP DP RH WIND PRES REMARKS
 
PASCO FAIR 43 36 76 CALM 30.21R  
PROSSER AWOS N/A 41 37 86 CALM 30.23S  
RICHLAND AWOS FAIR 43 38 82 CALM 30.20S  
#BASIN CITY 5SW N/A 45 35 68 W2 30.17F  
#BENTON CITY N/A 45 37 73 CALM 30.11R  
#CONNELL 5N N/A 39 34 82 NW1 30.18S  
#CONNELL 5NW N/A 45 20 36 CALM 30.13S  
#ELTOPIA 6NW N/A 48 36 63 CALM 29.15S  
#KAHLOTUS N/A 44 35 70 CALM 30.17R  
#KENNEWICK 3S N/A 49 36 61 CALM 30.19S  
#PROSSER DOT N/A 41 36 82 CALM 30.21R  
#SAGEMOOR 2W N/A 49 35 58 W7 30.04S  
#TOUCHET 2S N/A 47 37 68 NW1 30.18S  

 
 
WAZ029-201110-  
FOOTHILLS OF THE BLUES...WASHINGTON  
 
CITY SKY/WX TMP DP RH WIND PRES REMARKS
 
WALLA WALLA AP FAIR 49 34 56 S8 30.20R  
#CLYDE 6NW N/A 37 31 79 CALM 30.18S  
#DELANEY DOT N/A 37 32 82 S1 30.20S  
#LOWDEN 2SE N/A 36 34 92 E2 30.17S  
#PLEASANT VIEW 1N/A 45 34 65 SW7 30.21S  
#PRESCOTT N/A 36 32 85 CALM 30.19S  
#WHITMAN COLLEGEN/A 47 36 65 SE2 30.25R  
#WAITSBURG 5S N/A 44 33 65 CALM 30.29R  
#WAITSBURG 6SSE N/A 43 32 65 SE3 30.02S  
#WAITSBURG 8N N/A 0 N/A N/A CALM 29.91F  
#WALLA WALLA 5E N/A 42 35 76 NE2 N/A  
#WHITMAN MISSIONN/A 41 36 82 CALM 30.22R  

 
 
WAZ030-201110-  
BLUE MOUNTAINS...WASHINGTON  
 
CITY SKY/WX TMP DP RH WIND PRES REMARKS
 
#DIXIE 5SE N/A 45 30 55 S6 30.11R  

 
 
ORZ009-041-WAZ024-201110-  
COLUMBIA RIVER GORGE  
 
CITY SKY/WX TMP DP RH WIND PRES REMARKS
 
HOOD RIVER AP FAIR 41 34 76 CALM 30.25S  
THE DALLES AP FAIR 49 35 58 W3 30.23S  
#ARLINGTON AIRPON/A 46 33 60 SW3 30.21S  
#CELILO DOT N/A 51 32 48 SW3 N/A  
#LYLE N/A 49 39 68 NE3 30.25S  
#MARYHILL N/A 45 35 68 N6 30.07S  
#MURDOCK N/A 49 39 68 W5 30.20R  
#RUFUS DOT N/A 54 N/A N/A W14 N/A  
 

 
 
ORZ510-201110-  
NORTH CENTRAL OREGON  
 
CITY SKY/WX TMP DP RH WIND PRES REMARKS
 
#ANTELOPE N/A 34 28 78 NE2 30.13S  
#CHENOWITH 1W N/A 43 34 70 W21 N/A WCI 34  
#COW CYN RST AREN/A 43 N/A N/A S2 N/A  
#DUFUR N/A 34 29 82 CALM 30.20S  
#DUFUR 9E N/A 47 32 56 W3 30.27S  
#GRASS VALLEY 1SN/A 37 29 72 S6 30.21F  
#KENT DOT N/A 39 21 48 SW2 N/A  
#MAUPIN SCHOOL N/A 42 31 65 CALM 30.29S  
#SHANIKO 5WSW N/A 42 28 57 S8 N/A  
#SHANIKO 4NW N/A 40 27 59 SW1 30.22R  
#TYGH VALLEY 2NEN/A 39 32 76 CALM 30.23R  
#WAPANITIA AIRPON/A 39 30 70 NW3 30.24S  
#WASCO DOT N/A 41 34 76 CALM N/A  
#WASCO 5NE N/A 41 33 73 CALM 30.20S  

 
 
ORZ511-201110-  
CENTRAL OREGON  
 
CITY SKY/WX TMP DP RH WIND PRES REMARKS
 
BEND AIRPORT FAIR 34 30 85 S3 30.25S  
MADRAS AIRPORT FAIR 32 30 92 S5 30.25S  
PRINEVILLE AP FAIR 28 27 96 S5 30.24S  
REDMOND AIRPORT FAIR 31 27 85 S5 30.23S  
#ASHWOOD SCHOOL N/A 37 32 82 SE3 30.19F  
#BEND 1SW N/A 31 28 88 SE1 N/A  
#BEND-AWBREY N/A 38 32 79 S3 30.24S  
#BEND-KIM LN N/A 30 27 88 SW2 30.19S  
#CULVER N/A 37 29 72 CALM 30.07S  
#CULVER 8W N/A 33 28 82 CALM 30.20F  
#LAKE BILLY CHINN/A 38 N/A N/A CALM 30.31S  
#POWELL BUTTE N/A 42 29 60 SW2 30.16S  
#PRINEVILLE N/A 34 30 85 CALM 30.34S  
#PRINEVILLE 3N N/A 33 29 85 N2 30.25R  
 

 
 
 
ORZ509-201110-  
EAST SLOPES OF OREGON CASCADES  
 
CITY SKY/WX TMP DP RH WIND PRES REMARKS
 
SISTERS AWOS N/A 30 27 88 CALM 30.19S  
#BLUE BOX PASS N/A 39 N/A N/A NW3 N/A  
#CAMP SHERMAN N/A 29 26 88 CALM 30.30F  
#LA PINE 4NW N/A 25 21 84 CALM 30.31S  
#LAVA BUTTE DOT N/A 28 25 88 NE2 N/A  
#SISTERS ODOT N/A 27 25 92 CALM N/A  
#SISTERS 3N N/A 29 21 72 CALM 30.23R  
#SUNRIVER N/A 27 25 92 CALM 30.28S  
#TUMALO 3W N/A 40 32 73 NW1 30.11F  
#WANOGA BUTTE D N/A 33 N/A N/A W2 N/A  
 

 
 
ORZ044-201110-  
LOWER COLUMBIA BASIN...OREGON  
 
CITY SKY/WX TMP DP RH WIND PRES REMARKS
 
HERMISTON FAIR 41 35 79 CALM 30.20R  
#BOARDMAN SCHOOLN/A 47 35 63 CALM 30.20R  
#BOARDMAN 8SW N/A 43 35 73 SW6 30.20S  
#ECHO 8SW N/A 48 36 63 CALM 30.21R  
#I-84 EX 198 DOTN/A 48 32 54 NE8 N/A  
#IONE SCHOOL N/A 41 26 55 CALM 30.24R  
#UMATILLA N/A 44 34 68 CALM 30.14R  

 
 
ORZ507-201110-  
NORTHERN FOOTHILLS OF THE BLUES  
 
CITY SKY/WX TMP DP RH WIND PRES REMARKS
 
PENDLETON AIRPT FAIR 41 32 70 SE7 30.20R  
#ADAMS 3WNW N/A 33 30 89 CALM 30.22R  
#ATHENA N/A 41 34 76 CALM 30.24S  
#CAYUSE N/A 45 35 68 E5 30.21R  
#HELIX SCHOOL N/A 32 29 89 CALM 30.22R  
#HELIX 3N N/A 43 33 67 S6 30.20R  
#HOLDMAN 5SE N/A 36 32 85 CALM 30.19R  
#HOLDMAN 6E N/A 41 34 76 CALM 30.01S  
#M-F GROVE ELEM N/A 44 31 60 CALM 30.17R  
#M-FREEWATER 5SEN/A 44 33 65 NE1 30.19S  
#PENDLETON DNTN N/A 38 28 67 E3 N/A  
#PDT AQUATIC CTRN/A 39 29 67 CALM 30.16S  
#PDT SUNRIDGE N/A 38 33 82 CALM 30.23R  
#PENDLETON 6SE N/A 41 35 79 S5 30.17R  
#PENDLETON 7NW N/A 37 31 79 CALM 27.38S  
#PILOT ROCK 1S N/A 45 28 51 SE7 30.20S  
#PILOT ROCK N/A 42 32 67 CALM 30.21R  
#TUTUILLA N/A 34 30 85 CALM 30.25R  
#UMAPINE 2E N/A 39 34 82 CALM 30.18R  
 

 
 
ORZ508-201110-  
SOUTHERN FOOTHILLS OF THE BLUES  
 
CITY SKY/WX TMP DP RH WIND PRES REMARKS
 
#AJAX N/A 44 23 43 CALM 30.35S  
#CONDON 5W N/A 42 26 53 W5 30.18S  
#FOSSIL SCHOOL N/A 34 31 89 CALM 30.16S  
#HEPPNER EOC N/A 40 32 73 E5 30.17R  
#HEPPNER 4NE N/A 41 31 67 CALM 30.23S  
#LEXINGTON 2SE N/A 41 33 73 SE7 30.19S  
#MIKKALO N/A 45 30 55 S2 30.30S  
#OLEX 4N N/A 44 35 70 SW5 30.18S  
#RUGGS 2SW N/A 40 30 67 SW8 30.25S  
 

 
 
ORZ502-503-201110-  
BLUE MOUNTAINS  
 
CITY SKY/WX TMP DP RH WIND PRES REMARKS
 
MEACHAM FAIR 27 24 88 CALM 30.20S  
#BATTLE MTN DOT N/A 36 26 67 W1 N/A  
#GRANITE N/A 27 19 71 E1 29.85S  
#HEPPNER 15SE N/A 30 27 88 CALM 25.70S  
#LADD CYN SMT N/A 36 29 75 W1 N/A  
#LADD CREEK ODOTN/A 36 28 72 SW1 N/A  
#N POWDER DOT N/A 38 29 70 N8 N/A  
#PIKES PEAK N/A 44 28 53 S13 27.99S WCI 38  
#SUMMERVILLE 5NWN/A 34 30 85 CALM 26.82S  
#TOLLGATE N/A 34 28 78 CALM 30.20S  
#TROY SCHOOL N/A 39 35 85 CALM 30.07R  
#UKIAH N/A 26 25 96 CALM 30.19R  
#WESTON 4E N/A 42 31 65 CALM 30.18S  

 
 
ORZ505-201110-  
JOHN DAY BASIN  
 
CITY SKY/WX TMP DP RH WIND PRES REMARKS
 
JOHN DAY FAIR 33 29 85 E3 30.21S  
#ANTELOPE 9ESE N/A 39 35 85 S1 N/A  
#MITCHELL 8NW N/A 43 30 60 CALM 30.27S  
#MONUMENT HS N/A 34 29 82 CALM 30.18S  
#MT. VERNON 5SE N/A 36 28 72 CALM 30.15S  

 
 
ORZ506-201110-  
OCHOCO AND JOHN DAY HIGHLANDS  
 
CITY SKY/WX TMP DP RH WIND PRES REMARKS
 
#HORSE RIDGE DO N/A 24 21 88 CALM N/A  
#KEYES SMT DOT N/A 33 27 78 CALM N/A  
#PAULINA ODOT N/A N/A N/A N/A CALM N/A  
#PINE MTN OBS N/A 31 29 92 CALM N/A  
#PRAIRIE CITY N/A 27 22 81 CALM 30.36S  
#SENECA N/A 31 N/A N/A N1 N/A  
#SENECA 9NW N/A 31 25 78 CALM 30.18S  

 
 
ORZ049-201110-  
GRANDE RONDE VALLEY  
 
CITY SKY/WX TMP DP RH WIND PRES REMARKS
 
LA GRANDE FAIR 38 30 73 NW13 30.19F WCI 30  
#COVE SCHOOL N/A 35 31 85 CALM 30.19S  
#COVE 6NW N/A 35 31 85 CALM 30.20S  
#ELGIN 3N N/A 31 25 78 CALM 30.16S  
#ELGIN 1E N/A 34 28 78 CALM N/A  
#IMBLER SCHOOL N/A 35 29 78 CALM 30.14F  
#ISLAND CITY 4N N/A 40 34 79 CALM 30.29S  
#LADD CYN DOT N/A 40 31 70 SE9 N/A  
#UNION 1S N/A 34 28 78 CALM 30.19S  

 
 
ORZ050-201110-  
WALLOWA COUNTY  
 
CITY SKY/WX TMP DP RH WIND PRES REMARKS
 
#ENTERPRISE HS N/A 30 26 85 CALM 30.10R  
#IMNAHA SCHOOL N/A 40 33 76 S1 30.20S  
#IMNAHA 10S N/A 37 29 72 SW5 30.17F  
#JOSEPH N/A 35 23 61 CALM 30.35S  
#JOSEPH 3N N/A 27 20 74 CALM 30.20F  
#JOSEPH 3W N/A 34 27 75 SW2 30.00F  
#LOSTINE N/A 32 27 82 CALM 30.01S  
#LOSTINE 3SE N/A 33 27 78 W5 30.24F  
#MT HOWARD 8000 N/A 26 21 81 CALM 30.15F  
#PROMISE 1S N/A 34 29 82 CALM 30.26F  
#WALLOWA LAKE N/A 36 26 67 S2 30.21F  
#WALLOWA SCHOOL N/A 30 27 88 CALM 30.16S  
 

 
 
CLICK HERE TO GO TO PREVIOUS BULLETINS.

The Nexlab OR Page
The Nexlab WA Page Main Text Page